Location: *
(57.8420°S, 159.8600°W)
Time: 11:47:55
(UTC+00:00)

Cosmos 405 Rocket - Pass Details

Date: 18 May 2021
Orbit: 488 x 553 km, 81.3° (Epoch: 22 June)

Event Time Altitude Azimuth Distance (km) Brightness Sun altitude
Rises 05:22:21 0° 321° (NW) 2,620 6.9 -22.6°
Reaches altitude 10° 05:24:36 10° 311° (NW) 1,752 6.0 -22.9°
Maximum altitude 05:28:08 34° 244° (WSW) 894 4.4 -23.4°
Enters shadow 05:31:10 14° 182° (S) 1,582 5.2 -23.8°
